Orlando International, FL

5:32 AM EDT on March 23, 2017 (GMT -0400)
Orlando International

Weather History for KMCO - April, 2012

Change the Weather History Date:

Wednesday, April 18, 2012

  Actual Average Record
Temperature  
Mean Temperature 74 °F 72 °F  
Max Temperature 86 °F 83 °F 93 °F (1922)
Min Temperature 61 °F 60 °F 45 °F (1905)
Degree Days  
Heating Degree Days 0 0  
Month to date heating degree days 0 11  
Since 1 July heating degree days 309 569  
Cooling Degree Days 9 7  
Month to date cooling degree days 159 104  
Year to date cooling degree days 524 326  
Growing Degree Days 24 (Base 50)    
Moisture  
Dew Point 60 °F    
Average Humidity 64    
Maximum Humidity 93    
Minimum Humidity 34    
Precipitation  
Precipitation 0.00 in 0.09 in 1.81 in (1951)
Month to date precipitation 0.13 1.74  
Year to date precipitation 4.21 10.24  
Sea Level Pressure  
Sea Level Pressure 30.04 in    
Wind  
Wind Speed 7 mph (SSE)    
Max Wind Speed 16 mph    
Max Gust Speed 23 mph    
Visibility 10 miles    
Events      
T = Trace of Precipitation, MM = Missing Value Source: NWS Daily Summary

Daily Weather History Graph

Daily Weather History Graph

Search for Another Location

Airport or City:

Trip Planner

Search our weather history database for the weather conditions in past years. The results will help you decide how hot, cold, wet, or windy it might be!

Date:

Astronomy

Apr. 18, 2012 Rise Set
Actual Time 6:56 AM EDT 7:53 PM EDT
Civil Twilight 6:32 AM EDT 8:17 PM EDT
Nautical Twilight 6:03 AM EDT 8:46 PM EDT
Astronomical Twilight 5:34 AM EDT 9:15 PM EDT
Moon 5:10 AM EDT (4/18) 5:50 PM EDT (4/18)
Length of Visible Light 13h 45m
Length of Day
12h 56m
Waning Crescent, 6% of the Moon is Illuminated
Apr 18
Waning Crescent
Apr 21
New
Apr 29
First Quarter
May 5
Full
May 12
Last Quarter

Hourly Weather History & Observations

Time (EDT) Temp. Heat Index Dew Point Humidity Pressure Visibility Wind Dir Wind Speed Gust Speed Precip Events Conditions
12:53 AM 68.0 °F - 59.0 °F 73% 30.12 in 10.0 mi SE 5.8 mph - N/A   Mostly Cloudy
1:53 AM 66.9 °F - 59.0 °F 76% 30.10 in 10.0 mi SE 5.8 mph - N/A   Mostly Cloudy
2:53 AM 66.0 °F - 59.0 °F 78% 30.08 in 10.0 mi SE 4.6 mph - N/A   Mostly Cloudy
3:53 AM 64.9 °F - 59.0 °F 81% 30.08 in 10.0 mi SE 3.5 mph - N/A   Scattered Clouds
4:53 AM 64.9 °F - 60.1 °F 84% 30.08 in 10.0 mi Calm Calm - N/A   Mostly Cloudy
5:53 AM 64.0 °F - 60.1 °F 87% 30.09 in 10.0 mi Calm Calm - N/A   Scattered Clouds
6:53 AM 63.0 °F - 60.1 °F 90% 30.09 in 10.0 mi Calm Calm - N/A   Scattered Clouds
7:53 AM 64.0 °F - 61.0 °F 90% 30.10 in 10.0 mi SSE 3.5 mph - N/A   Scattered Clouds
8:53 AM 73.0 °F - 62.1 °F 68% 30.09 in 10.0 mi SSE 11.5 mph - N/A   Partly Cloudy
9:53 AM 75.9 °F - 63.0 °F 64% 30.09 in 10.0 mi South 15.0 mph 19.6 mph N/A   Scattered Clouds
10:53 AM 80.1 °F 81.5 °F 63.0 °F 56% 30.08 in 10.0 mi SSE 12.7 mph - N/A   Scattered Clouds
11:53 AM 82.0 °F 81.7 °F 57.0 °F 42% 30.07 in 10.0 mi SE 10.4 mph - N/A   Mostly Cloudy
12:53 PM 82.0 °F 82.0 °F 57.9 °F 44% 30.05 in 10.0 mi South 6.9 mph 16.1 mph N/A   Mostly Cloudy
1:53 PM 82.9 °F 82.4 °F 57.0 °F 41% 30.03 in 10.0 mi SSW 8.1 mph - N/A   Mostly Cloudy
2:53 PM 84.0 °F 83.3 °F 57.0 °F 40% 30.00 in 10.0 mi South 8.1 mph - N/A   Mostly Cloudy
3:53 PM 84.0 °F 83.0 °F 55.9 °F 38% 29.98 in 10.0 mi South 8.1 mph - N/A   Mostly Cloudy
4:53 PM 84.9 °F 83.3 °F 54.0 °F 34% 29.97 in 10.0 mi SSW 9.2 mph - N/A   Mostly Cloudy
5:53 PM 84.0 °F 82.9 °F 55.0 °F 37% 29.96 in 10.0 mi South 6.9 mph - N/A   Mostly Cloudy
6:53 PM 80.1 °F 81.7 °F 64.0 °F 58% 29.97 in 10.0 mi ESE 12.7 mph - N/A   Mostly Cloudy
7:53 PM 77.0 °F - 63.0 °F 62% 29.98 in 10.0 mi ESE 12.7 mph 23.0 mph N/A   Mostly Cloudy
8:53 PM 75.9 °F - 64.0 °F 67% 29.99 in 10.0 mi ESE 8.1 mph - N/A   Mostly Cloudy
9:53 PM 73.9 °F - 63.0 °F 68% 30.01 in 10.0 mi SE 9.2 mph - N/A   Scattered Clouds
10:53 PM 73.0 °F - 63.0 °F 71% 30.01 in 10.0 mi SE 6.9 mph - N/A   Mostly Cloudy
11:53 PM 71.1 °F - 63.0 °F 75% 30.01 in 10.0 mi SE 6.9 mph - N/A   Scattered Clouds